Time,TemperatureF,DewpointF,PressureIn,WindDirection,WindDirectionDegrees,WindSpeedMPH,WindSpeedGustMPH,Humidity,HourlyPrecipIn,Conditions,Clouds,dailyrainin,SoftwareType,DateUTC
2013-02-09 00:00:00,36.0,25.4,30.07,NW,305,7.1,20.7,65,0.00,SCT,,0.51,WeatherDisplay:10.37,2013-02-09 05:00:00,
2013-02-09 00:02:00,36.0,25.4,30.07,NNE,14,7.3,12.0,65,0.00,RA,,0.00,WeatherDisplay:10.37,2013-02-09 05:02:00,
2013-02-09 00:03:00,36.0,25.0,30.07,NNW,342,7.2,11.5,64,0.00,RA,,0.00,WeatherDisplay:10.37,2013-02-09 05:03:00,
2013-02-09 00:09:00,36.0,25.0,30.07,NNW,335,5.4,11.0,64,0.00,RA,,0.00,WeatherDisplay:10.37,2013-02-09 05:09:00,
2013-02-09 00:14:00,35.9,24.9,30.07,NW,326,6.0,0.0,64,0.00,RA,,0.00,WeatherDisplay:10.37,2013-02-09 05:14:00,
2013-02-09 00:19:00,35.9,25.3,30.07,NNW,345,6.0,0.0,65,0.00,RA,,0.00,WeatherDisplay:10.37,2013-02-09 05:19:00,
2013-02-09 00:24:00,35.7,25.1,30.07,NW,325,3.0,0.0,65,0.00,RA,,0.00,WeatherDisplay:10.37,2013-02-09 05:24:00,
2013-02-09 00:29:00,35.5,24.9,30.08,NW,320,6.0,0.0,65,0.00,RA,,0.00,WeatherDisplay:10.37,2013-02-09 05:29:00,
2013-02-09 00:34:00,35.4,24.4,30.07,WNW,296,6.0,0.0,64,0.00,FEW,,0.00,WeatherDisplay:10.37,2013-02-09 05:34:00,
2013-02-09 00:39:00,35.3,24.3,30.07,WNW,303,5.0,0.0,64,0.00,FEW,,0.00,WeatherDisplay:10.37,2013-02-09 05:39:00,
2013-02-09 00:44:00,35.3,24.3,30.07,NW,316,3.2,9.2,64,0.00,FEW,,0.00,WeatherDisplay:10.37,2013-02-09 05:44:00,
2013-02-09 00:49:00,35.2,24.2,30.07,WNW,297,7.0,0.0,64,0.00,FEW,,0.00,WeatherDisplay:10.37,2013-02-09 05:49:00,
2013-02-09 00:54:00,35.1,24.1,30.07,NW,318,3.0,0.0,64,0.00,FEW,,0.00,WeatherDisplay:10.37,2013-02-09 05:54:00,
2013-02-09 00:59:00,35.1,24.1,30.07,NW,326,5.0,0.0,64,0.00,FEW,,0.00,WeatherDisplay:10.37,2013-02-09 05:59:00,
2013-02-09 01:04:00,35.1,23.8,30.07,NW,315,6.0,0.0,63,0.00,FEW,,0.00,WeatherDisplay:10.37,2013-02-09 06:04:00,
2013-02-09 01:10:00,35.0,24.0,30.07,NW,325,2.0,0.0,64,0.00,FEW,,0.00,WeatherDisplay:10.37,2013-02-09 06:10:00,
2013-02-09 01:15:00,34.9,23.6,30.08,North,360,7.9,12.0,63,0.00,FEW,,0.00,WeatherDisplay:10.37,2013-02-09 06:15:00,
2013-02-09 01:20:00,35.0,24.0,30.07,NNW,332,1.9,4.0,64,0.00,CLR,,0.00,WeatherDisplay:10.37,2013-02-09 06:20:00,
2013-02-09 01:25:00,34.9,23.2,30.07,West,274,5.0,11.5,62,0.00,CLR,,0.00,WeatherDisplay:10.37,2013-02-09 06:25:00,
2013-02-09 01:31:00,34.9,23.2,30.07,NW,314,3.3,6.9,62,0.00,CLR,,0.00,WeatherDisplay:10.37,2013-02-09 06:31:00,
2013-02-09 01:36:00,34.9,23.2,30.07,NW,326,5.4,11.0,62,0.00,CLR,,0.00,WeatherDisplay:10.37,2013-02-09 06:36:00,
2013-02-09 01:41:00,34.7,23.4,30.07,SSW,195,2.4,6.0,63,0.00,CLR,,0.00,WeatherDisplay:10.37,2013-02-09 06:41:00,
2013-02-09 01:46:00,34.6,22.9,30.08,NNW,331,3.0,6.0,62,0.00,CLR,,0.00,WeatherDisplay:10.37,2013-02-09 06:46:00,
2013-02-09 01:51:00,34.7,23.0,30.07,North,8,3.4,9.2,62,0.00,CLR,,0.00,WeatherDisplay:10.37,2013-02-09 06:51:00,
2013-02-09 01:56:00,34.8,22.7,30.07,North,356,4.1,17.3,61,0.00,CLR,,0.00,WeatherDisplay:10.37,2013-02-09 06:56:00,
2013-02-09 02:01:00,34.8,22.7,30.08,WSW,257,5.3,9.0,61,0.00,CLR,,0.00,WeatherDisplay:10.37,2013-02-09 07:01:00,
2013-02-09 02:06:00,34.7,22.6,30.08,WSW,246,2.6,4.0,61,0.00,CLR,,0.00,WeatherDisplay:10.37,2013-02-09 07:06:00,
2013-02-09 02:11:00,34.5,22.4,30.08,NNW,337,2.0,3.5,61,0.00,CLR,,0.00,WeatherDisplay:10.37,2013-02-09 07:11:00,
2013-02-09 02:16:00,34.6,22.5,30.08,WNW,300,4.4,8.1,61,0.00,CLR,,0.00,WeatherDisplay:10.37,2013-02-09 07:16:00,
2013-02-09 02:21:00,34.7,22.2,30.08,NW,323,5.3,10.4,60,0.00,CLR,,0.00,WeatherDisplay:10.37,2013-02-09 07:21:00,
2013-02-09 02:26:00,34.7,22.2,30.08,NNW,347,4.2,6.9,60,0.00,CLR,,0.00,WeatherDisplay:10.37,2013-02-09 07:26:00,
2013-02-09 02:31:00,34.7,22.2,30.08,NNW,327,3.8,11.5,60,0.00,CLR,,0.00,WeatherDisplay:10.37,2013-02-09 07:31:00,
2013-02-09 02:36:00,34.7,21.8,30.08,NW,325,3.3,6.9,59,0.00,CLR,,0.00,WeatherDisplay:10.37,2013-02-09 07:36:00,
2013-02-09 02:41:00,34.7,21.8,30.07,NNW,347,4.4,12.7,59,0.00,CLR,,0.00,WeatherDisplay:10.37,2013-02-09 07:41:00,
2013-02-09 02:46:00,34.6,21.7,30.08,NW,311,5.0,9.2,59,0.00,CLR,,0.00,WeatherDisplay:10.37,2013-02-09 07:46:00,
2013-02-09 02:52:00,34.5,21.6,30.08,NNW,331,5.6,9.0,59,0.00,CLR,,0.00,WeatherDisplay:10.37,2013-02-09 07:52:00,
2013-02-09 02:57:00,34.5,21.2,30.07,NNW,335,6.1,9.2,58,0.00,CLR,,0.00,WeatherDisplay:10.37,2013-02-09 07:57:00,
2013-02-09 03:02:00,34.4,21.1,30.07,NNW,336,6.5,11.5,58,0.00,CLR,,0.00,WeatherDisplay:10.37,2013-02-09 08:02:00,
2013-02-09 03:07:00,34.4,21.5,30.07,WNW,298,4.2,11.5,59,0.00,CLR,,0.00,WeatherDisplay:10.37,2013-02-09 08:07:00,
2013-02-09 03:12:00,34.2,21.4,30.07,WNW,294,8.4,15.0,59,0.00,CLR,,0.00,WeatherDisplay:10.37,2013-02-09 08:12:00,
2013-02-09 03:17:00,34.3,21.4,30.06,NW,308,5.4,8.0,59,0.00,CLR,,0.00,WeatherDisplay:10.37,2013-02-09 08:17:00,
2013-02-09 03:23:00,34.3,21.0,30.07,WSW,258,5.3,11.5,58,0.00,CLR,,0.00,WeatherDisplay:10.37,2013-02-09 08:23:00,
2013-02-09 03:29:00,34.2,20.9,30.06,WNW,301,7.7,12.0,58,0.00,CLR,,0.00,WeatherDisplay:10.37,2013-02-09 08:29:00,
2013-02-09 03:34:00,34.2,20.9,30.07,NNW,347,6.3,15.0,58,0.00,CLR,,0.00,WeatherDisplay:10.37,2013-02-09 08:34:00,
2013-02-09 03:39:00,34.1,20.9,30.06,West,276,6.5,12.7,58,0.00,CLR,,0.00,WeatherDisplay:10.37,2013-02-09 08:39:00,
2013-02-09 03:45:00,34.0,20.8,30.06,WNW,296,7.0,0.0,58,0.00,CLR,,0.00,WeatherDisplay:10.37,2013-02-09 08:45:00,
2013-02-09 03:50:00,34.1,20.4,30.06,NW,326,7.0,0.0,57,0.00,CLR,,0.00,WeatherDisplay:10.37,2013-02-09 08:50:00,
2013-02-09 03:55:00,34.0,19.9,30.06,NNW,336,8.0,0.0,56,0.00,CLR,,0.00,WeatherDisplay:10.37,2013-02-09 08:55:00,
2013-02-09 04:00:00,34.0,19.9,30.05,NW,324,12.0,0.0,56,0.00,CLR,,0.00,WeatherDisplay:10.37,2013-02-09 09:00:00,
2013-02-09 04:05:00,34.1,20.0,30.06,NW,311,8.0,0.0,56,0.00,CLR,,0.00,WeatherDisplay:10.37,2013-02-09 09:05:00,
2013-02-09 04:10:00,34.0,19.9,30.05,WNW,303,6.0,0.0,56,0.00,CLR,,0.00,WeatherDisplay:10.37,2013-02-09 09:10:00,
2013-02-09 04:15:00,33.9,19.8,30.05,WNW,298,7.0,0.0,56,0.00,CLR,,0.00,WeatherDisplay:10.37,2013-02-09 09:15:00,
2013-02-09 04:20:00,33.9,19.4,30.05,NW,306,6.0,0.0,55,0.00,CLR,,0.00,WeatherDisplay:10.37,2013-02-09 09:20:00,
2013-02-09 04:25:00,33.8,19.3,30.05,NW,316,8.0,0.0,55,0.00,CLR,,0.00,WeatherDisplay:10.37,2013-02-09 09:25:00,
2013-02-09 04:30:00,33.8,19.3,30.05,NW,321,8.0,0.0,55,0.00,CLR,,0.00,WeatherDisplay:10.37,2013-02-09 09:30:00,
2013-02-09 04:35:00,33.9,19.4,30.05,WNW,289,8.0,0.0,55,0.00,CLR,,0.00,WeatherDisplay:10.37,2013-02-09 09:35:00,
2013-02-09 04:40:00,33.8,19.3,30.05,NW,316,8.0,0.0,55,0.00,CLR,,0.00,WeatherDisplay:10.37,2013-02-09 09:40:00,
2013-02-09 04:45:00,33.7,19.2,30.05,NNW,333,7.0,0.0,55,0.00,CLR,,0.00,WeatherDisplay:10.37,2013-02-09 09:45:00,
2013-02-09 04:50:00,33.6,19.1,30.05,NNW,335,9.0,0.0,55,0.00,CLR,,0.00,WeatherDisplay:10.37,2013-02-09 09:50:00,
2013-02-09 04:55:00,33.6,19.1,30.05,NW,313,5.9,9.0,55,0.00,CLR,,0.00,WeatherDisplay:10.37,2013-02-09 09:55:00,
2013-02-09 05:00:00,33.6,19.1,30.06,NW,326,3.6,15.0,55,0.00,CLR,,0.00,WeatherDisplay:10.37,2013-02-09 10:00:00,
2013-02-09 05:06:00,33.5,19.0,30.06,NNW,329,8.5,19.6,55,0.00,CLR,,0.00,WeatherDisplay:10.37,2013-02-09 10:06:00,
2013-02-09 05:11:00,33.6,19.1,30.06,NNW,347,5.3,15.0,55,0.00,CLR,,0.00,WeatherDisplay:10.37,2013-02-09 10:11:00,
2013-02-09 05:16:00,33.5,19.5,30.06,West,271,2.6,6.9,56,0.00,CLR,,0.00,WeatherDisplay:10.37,2013-02-09 10:16:00,
2013-02-09 05:21:00,33.3,19.3,30.07,NNW,347,4.8,8.0,56,0.00,CLR,,0.00,WeatherDisplay:10.37,2013-02-09 10:21:00,
2013-02-09 05:26:00,33.3,19.3,30.07,North,8,5.7,9.2,56,0.00,CLR,,0.00,WeatherDisplay:10.37,2013-02-09 10:26:00,
2013-02-09 05:31:00,33.4,19.4,30.08,NW,313,2.9,7.0,56,0.00,CLR,,0.00,WeatherDisplay:10.37,2013-02-09 10:31:00,
2013-02-09 05:36:00,33.2,19.2,30.09,WNW,294,5.8,12.7,56,0.00,CLR,,0.00,WeatherDisplay:10.37,2013-02-09 10:36:00,
2013-02-09 05:41:00,33.1,19.5,30.09,SW,219,6.7,14.0,57,0.00,CLR,,0.00,WeatherDisplay:10.37,2013-02-09 10:41:00,
2013-02-09 05:46:00,33.0,19.4,30.10,NNE,26,2.0,5.0,57,0.00,CLR,,0.00,WeatherDisplay:10.37,2013-02-09 10:46:00,
2013-02-09 05:51:00,33.0,19.0,30.10,SW,218,2.2,12.0,56,0.00,CLR,,0.00,WeatherDisplay:10.37,2013-02-09 10:51:00,
2013-02-09 05:56:00,32.9,18.9,30.11,NW,314,3.2,8.1,56,0.00,CLR,,0.00,WeatherDisplay:10.37,2013-02-09 10:56:00,
2013-02-09 06:01:00,32.9,18.9,30.12,East,79,3.7,9.0,56,0.00,CLR,,0.00,WeatherDisplay:10.37,2013-02-09 11:01:00,
2013-02-09 06:07:00,32.9,18.9,30.13,West,267,3.1,5.0,56,0.00,CLR,,0.00,WeatherDisplay:10.37,2013-02-09 11:07:00,
2013-02-09 06:13:00,32.8,18.8,30.13,West,259,2.3,4.0,56,0.00,CLR,,0.00,WeatherDisplay:10.37,2013-02-09 11:13:00,
2013-02-09 06:18:00,32.6,19.0,30.13,SE,142,2.1,4.0,57,0.00,CLR,,0.00,WeatherDisplay:10.37,2013-02-09 11:18:00,
2013-02-09 06:23:00,32.3,18.8,30.14,NW,314,0.0,3.5,57,0.00,CLR,,0.00,WeatherDisplay:10.37,2013-02-09 11:23:00,
2013-02-09 06:28:00,32.3,18.8,30.15,SSW,200,2.8,6.0,57,0.00,CLR,,0.00,WeatherDisplay:10.37,2013-02-09 11:28:00,
2013-02-09 06:33:00,32.3,18.8,30.15,WNW,283,2.4,4.0,57,0.00,CLR,,0.00,WeatherDisplay:10.37,2013-02-09 11:33:00,
2013-02-09 06:38:00,32.2,18.7,30.15,NNW,344,1.5,6.9,57,0.00,CLR,,0.00,WeatherDisplay:10.37,2013-02-09 11:38:00,
2013-02-09 06:43:00,32.0,18.5,30.15,East,85,0.9,6.0,57,0.00,CLR,,0.00,WeatherDisplay:10.37,2013-02-09 11:43:00,
2013-02-09 06:48:00,31.4,18.7,30.16,ESE,113,2.0,4.0,59,0.00,CLR,,0.00,WeatherDisplay:10.37,2013-02-09 11:48:00,
2013-02-09 06:53:00,31.4,18.3,30.17,NE,51,0.2,1.1,58,0.00,CLR,,0.00,WeatherDisplay:10.37,2013-02-09 11:53:00,
2013-02-09 06:58:00,31.8,18.3,30.17,WSW,242,0.2,1.1,57,0.00,CLR,,0.00,WeatherDisplay:10.37,2013-02-09 11:58:00,
2013-02-09 07:03:00,31.4,18.7,30.18,NNW,338,0.9,3.0,59,0.00,CLR,,0.00,WeatherDisplay:10.37,2013-02-09 12:03:00,
2013-02-09 07:08:00,31.1,18.0,30.18,West,264,0.0,1.0,58,0.00,CLR,,0.00,WeatherDisplay:10.37,2013-02-09 12:08:00,
2013-02-09 07:13:00,31.2,18.1,30.18,West,276,0.6,4.0,58,0.00,CLR,,0.00,WeatherDisplay:10.37,2013-02-09 12:13:00,
2013-02-09 07:18:00,31.4,18.7,30.18,ESE,115,0.0,0.0,59,0.00,CLR,,0.00,WeatherDisplay:10.37,2013-02-09 12:18:00,
2013-02-09 07:23:00,31.2,17.7,30.18,ESE,114,0.0,1.1,57,0.00,CLR,,0.00,WeatherDisplay:10.37,2013-02-09 12:23:00,
2013-02-09 07:28:00,31.2,17.7,30.18,WNW,293,0.0,1.1,57,0.00,CLR,,0.00,WeatherDisplay:10.37,2013-02-09 12:28:00,
2013-02-09 07:33:00,31.0,17.9,30.19,WNW,293,0.0,0.0,58,0.00,CLR,,0.00,WeatherDisplay:10.37,2013-02-09 12:33:00,
2013-02-09 07:38:00,30.8,17.7,30.19,North,6,0.9,2.0,58,0.00,CLR,,0.00,WeatherDisplay:10.37,2013-02-09 12:38:00,
2013-02-09 07:43:00,30.8,17.7,30.19,WSW,246,0.2,1.1,58,0.00,CLR,,0.00,WeatherDisplay:10.37,2013-02-09 12:43:00,
2013-02-09 07:48:00,30.5,17.9,30.20,SSE,165,0.3,1.1,59,0.00,CLR,,0.00,WeatherDisplay:10.37,2013-02-09 12:48:00,
2013-02-09 07:53:00,30.6,18.0,30.20,WNW,293,0.8,2.3,59,0.00,CLR,,0.00,WeatherDisplay:10.37,2013-02-09 12:53:00,
2013-02-09 07:59:00,30.8,17.7,30.20,WNW,293,0.6,2.3,58,0.00,CLR,,0.00,WeatherDisplay:10.37,2013-02-09 12:59:00,
2013-02-09 08:04:00,31.4,17.5,30.20,NE,36,1.9,4.6,56,0.00,CLR,,0.00,WeatherDisplay:10.37,2013-02-09 13:04:00,
2013-02-09 08:09:00,31.9,17.5,30.21,WNW,300,3.1,7.0,55,0.00,CLR,,0.00,WeatherDisplay:10.37,2013-02-09 13:09:00,
2013-02-09 08:14:00,32.3,17.1,30.21,NW,325,2.9,7.0,53,0.00,CLR,,0.00,WeatherDisplay:10.37,2013-02-09 13:14:00,
2013-02-09 08:20:00,32.6,16.9,30.21,WNW,286,2.0,0.0,52,0.00,CLR,,0.00,WeatherDisplay:10.37,2013-02-09 13:20:00,
2013-02-09 08:25:00,32.8,17.1,30.21,NNW,337,3.0,8.1,52,0.00,CLR,,0.00,WeatherDisplay:10.37,2013-02-09 13:25:00,
2013-02-09 08:30:00,32.8,17.1,30.22,NNE,25,2.5,5.0,52,0.00,CLR,,0.00,WeatherDisplay:10.37,2013-02-09 13:30:00,
2013-02-09 08:35:00,32.9,17.2,30.22,NNW,333,2.6,9.0,52,0.00,CLR,,0.00,WeatherDisplay:10.37,2013-02-09 13:35:00,
2013-02-09 08:41:00,33.1,16.9,30.23,SSW,204,2.7,7.0,51,0.00,CLR,,0.00,WeatherDisplay:10.37,2013-02-09 13:41:00,
2013-02-09 08:46:00,33.2,17.0,30.24,SW,222,3.0,6.0,51,0.00,CLR,,0.00,WeatherDisplay:10.37,2013-02-09 13:46:00,
2013-02-09 08:51:00,33.2,17.0,30.24,SW,214,1.2,3.0,51,0.00,CLR,,0.00,WeatherDisplay:10.37,2013-02-09 13:51:00,
2013-02-09 08:56:00,33.3,17.5,30.24,SSE,155,0.0,1.1,52,0.00,CLR,,0.00,WeatherDisplay:10.37,2013-02-09 13:56:00,
2013-02-09 09:02:00,33.3,16.6,30.24,North,359,1.2,2.3,50,0.00,CLR,,0.00,WeatherDisplay:10.37,2013-02-09 14:02:00,
2013-02-09 09:07:00,33.4,16.7,30.25,WNW,295,2.2,5.0,50,0.00,CLR,,0.00,WeatherDisplay:10.37,2013-02-09 14:07:00,
2013-02-09 09:12:00,33.6,16.5,30.25,West,263,3.2,5.8,49,0.00,CLR,,0.00,WeatherDisplay:10.37,2013-02-09 14:12:00,
2013-02-09 09:17:00,33.6,16.0,30.25,SW,214,0.8,5.8,48,0.00,CLR,,0.00,WeatherDisplay:10.37,2013-02-09 14:17:00,
2013-02-09 09:23:00,33.8,16.6,30.25,SSE,147,0.0,0.0,49,0.00,CLR,,0.00,WeatherDisplay:10.37,2013-02-09 14:23:00,
2013-02-09 09:28:00,34.0,15.4,30.25,East,86,0.2,3.5,46,0.00,CLR,,0.00,WeatherDisplay:10.37,2013-02-09 14:28:00,
2013-02-09 09:33:00,34.3,16.1,30.25,SW,233,0.6,3.5,47,0.00,CLR,,0.00,WeatherDisplay:10.37,2013-02-09 14:33:00,
2013-02-09 09:38:00,34.6,15.4,30.25,SW,233,3.3,5.8,45,0.00,CLR,,0.00,WeatherDisplay:10.37,2013-02-09 14:38:00,
2013-02-09 09:43:00,34.9,16.2,30.26,North,10,1.6,4.0,46,0.00,CLR,,0.00,WeatherDisplay:10.37,2013-02-09 14:43:00,
2013-02-09 09:48:00,35.1,14.8,30.26,West,262,2.8,5.0,43,0.00,CLR,,0.00,WeatherDisplay:10.37,2013-02-09 14:48:00,
2013-02-09 09:53:00,35.2,14.9,30.26,WSW,258,2.9,5.8,43,0.00,CLR,,0.00,WeatherDisplay:10.37,2013-02-09 14:53:00,
2013-02-09 09:58:00,35.5,15.2,30.26,NNW,346,0.3,2.3,43,0.00,CLR,,0.00,WeatherDisplay:10.37,2013-02-09 14:58:00,
2013-02-09 10:03:00,35.8,15.5,30.26,NNW,330,2.1,3.5,43,0.00,CLR,,0.00,WeatherDisplay:10.37,2013-02-09 15:03:00,
2013-02-09 10:08:00,36.0,15.1,30.27,North,8,1.5,3.0,42,0.00,CLR,,0.00,WeatherDisplay:10.37,2013-02-09 15:08:00,
2013-02-09 10:13:00,36.3,14.8,30.27,NNW,333,3.5,5.8,41,0.00,CLR,,0.00,WeatherDisplay:10.37,2013-02-09 15:13:00,
2013-02-09 10:18:00,36.5,15.0,30.27,South,181,2.8,7.0,41,0.00,CLR,,0.00,WeatherDisplay:10.37,2013-02-09 15:18:00,
2013-02-09 10:23:00,37.0,15.5,30.27,North,4,0.9,3.5,41,0.00,CLR,,0.00,WeatherDisplay:10.37,2013-02-09 15:23:00,
2013-02-09 10:29:00,37.4,15.2,30.27,North,6,0.1,3.5,40,0.00,CLR,,0.00,WeatherDisplay:10.37,2013-02-09 15:29:00,
2013-02-09 10:34:00,37.8,15.6,30.27,NNW,337,2.2,5.0,40,0.00,CLR,,0.00,WeatherDisplay:10.37,2013-02-09 15:34:00,
2013-02-09 10:39:00,38.1,15.3,30.28,NNW,332,2.0,3.0,39,0.00,CLR,,0.00,WeatherDisplay:10.37,2013-02-09 15:39:00,
2013-02-09 10:45:00,38.2,16.0,30.28,NNW,339,1.0,0.0,40,0.00,CLR,,0.00,WeatherDisplay:10.37,2013-02-09 15:45:00,
2013-02-09 10:50:00,38.4,15.0,30.29,NNW,329,1.0,0.0,38,0.00,CLR,,0.00,WeatherDisplay:10.37,2013-02-09 15:50:00,
2013-02-09 10:55:00,38.7,16.4,30.28,NNW,330,2.0,0.0,40,0.00,CLR,,0.00,WeatherDisplay:10.37,2013-02-09 15:55:00,
2013-02-09 11:00:00,38.7,15.3,30.28,North,11,2.0,0.0,38,0.00,CLR,,0.00,WeatherDisplay:10.37,2013-02-09 16:00:00,
2013-02-09 11:05:00,38.8,15.3,30.28,NNE,16,3.0,0.0,38,0.00,CLR,,0.00,WeatherDisplay:10.37,2013-02-09 16:05:00,
2013-02-09 11:10:00,39.0,15.5,30.28,West,264,2.2,3.0,38,0.00,CLR,,0.00,WeatherDisplay:10.37,2013-02-09 16:10:00,
2013-02-09 11:15:00,39.6,16.0,30.29,NW,316,1.7,3.5,38,0.00,CLR,,0.00,WeatherDisplay:10.37,2013-02-09 16:15:00,
2013-02-09 11:20:00,39.6,14.8,30.29,North,352,0.0,2.3,36,0.00,CLR,,0.00,WeatherDisplay:10.37,2013-02-09 16:20:00,
2013-02-09 11:25:00,39.9,15.7,30.28,NNE,22,2.5,4.0,37,0.00,CLR,,0.00,WeatherDisplay:10.37,2013-02-09 16:25:00,
2013-02-09 11:30:00,39.8,14.3,30.29,NNE,13,1.4,4.6,35,0.00,CLR,,0.00,WeatherDisplay:10.37,2013-02-09 16:30:00,
2013-02-09 11:35:00,40.1,14.6,30.29,NNW,332,1.4,3.5,35,0.00,CLR,,0.00,WeatherDisplay:10.37,2013-02-09 16:35:00,
2013-02-09 11:40:00,40.7,15.8,30.29,NNW,336,2.0,5.8,36,0.00,CLR,,0.00,WeatherDisplay:10.37,2013-02-09 16:40:00,
2013-02-09 11:45:00,40.8,17.1,30.29,North,3,1.6,3.5,38,0.00,CLR,,0.00,WeatherDisplay:10.37,2013-02-09 16:45:00,
2013-02-09 11:50:00,41.4,17.0,30.29,NW,320,2.1,5.8,37,0.00,CLR,,0.00,WeatherDisplay:10.37,2013-02-09 16:50:00,
2013-02-09 11:55:00,41.6,15.9,30.29,NNW,329,2.5,4.6,35,0.00,CLR,,0.00,WeatherDisplay:10.37,2013-02-09 16:55:00,
2013-02-09 12:00:00,41.9,17.5,30.28,North,352,2.2,4.0,37,0.00,CLR,,0.00,WeatherDisplay:10.37,2013-02-09 17:00:00,
2013-02-09 12:06:00,42.2,16.5,30.28,WSW,245,1.8,5.8,35,0.00,CLR,,0.00,WeatherDisplay:10.37,2013-02-09 17:06:00,
2013-02-09 12:11:00,42.2,16.5,30.28,WSW,255,1.7,5.8,35,0.00,CLR,,0.00,WeatherDisplay:10.37,2013-02-09 17:11:00,
2013-02-09 12:16:00,42.8,17.0,30.28,WNW,291,2.2,4.0,35,0.00,CLR,,0.00,WeatherDisplay:10.37,2013-02-09 17:16:00,
2013-02-09 12:21:00,43.2,16.7,30.28,NNE,25,2.7,5.0,34,0.00,CLR,,0.00,WeatherDisplay:10.37,2013-02-09 17:21:00,
2013-02-09 12:26:00,43.0,15.8,30.27,West,274,2.7,6.0,33,0.00,CLR,,0.00,WeatherDisplay:10.37,2013-02-09 17:26:00,
2013-02-09 12:31:00,43.4,18.8,30.27,NNE,23,1.4,3.5,37,0.00,CLR,,0.00,WeatherDisplay:10.37,2013-02-09 17:31:00,
2013-02-09 12:36:00,43.9,16.6,30.27,NNE,21,1.3,3.5,33,0.00,CLR,,0.00,WeatherDisplay:10.37,2013-02-09 17:36:00,
2013-02-09 12:41:00,44.2,15.4,30.28,NNW,342,3.8,5.0,31,0.00,CLR,,0.00,WeatherDisplay:10.37,2013-02-09 17:41:00,
2013-02-09 12:46:00,43.9,15.2,30.28,NNW,342,1.8,4.0,31,0.00,CLR,,0.00,WeatherDisplay:10.37,2013-02-09 17:46:00,
2013-02-09 12:51:00,43.9,15.9,30.28,WSW,256,1.9,4.6,32,0.00,CLR,,0.00,WeatherDisplay:10.37,2013-02-09 17:51:00,
2013-02-09 12:56:00,44.0,16.7,30.28,North,5,1.0,2.0,33,0.00,CLR,,0.00,WeatherDisplay:10.37,2013-02-09 17:56:00,
2013-02-09 13:01:00,44.2,16.9,30.28,SSW,204,1.4,4.6,33,0.00,CLR,,0.00,WeatherDisplay:10.37,2013-02-09 18:01:00,
2013-02-09 13:06:00,44.7,15.9,30.28,West,271,2.6,4.6,31,0.00,CLR,,0.00,WeatherDisplay:10.37,2013-02-09 18:06:00,
2013-02-09 13:11:00,44.7,15.9,30.27,WSW,240,2.2,6.0,31,0.00,CLR,,0.00,WeatherDisplay:10.37,2013-02-09 18:11:00,
2013-02-09 13:16:00,44.9,15.3,30.27,SSW,208,4.6,7.0,30,0.00,CLR,,0.00,WeatherDisplay:10.37,2013-02-09 18:16:00,
2013-02-09 13:21:00,44.7,16.6,30.27,NW,319,2.6,6.9,32,0.00,CLR,,0.00,WeatherDisplay:10.37,2013-02-09 18:21:00,
2013-02-09 13:26:00,44.5,14.2,30.27,SW,222,7.0,13.0,29,0.00,CLR,,0.00,WeatherDisplay:10.37,2013-02-09 18:26:00,
2013-02-09 13:31:00,44.3,14.8,30.27,North,3,3.0,11.5,30,0.00,CLR,,0.00,WeatherDisplay:10.37,2013-02-09 18:31:00,
2013-02-09 13:36:00,44.9,16.0,30.27,WSW,256,1.6,3.0,31,0.00,CLR,,0.00,WeatherDisplay:10.37,2013-02-09 18:36:00,
2013-02-09 13:41:00,45.6,15.9,30.27,NNW,337,3.7,8.0,30,0.00,CLR,,0.00,WeatherDisplay:10.37,2013-02-09 18:41:00,
2013-02-09 13:46:00,45.7,15.2,30.27,SW,217,4.6,8.0,29,0.00,CLR,,0.00,WeatherDisplay:10.37,2013-02-09 18:46:00,
2013-02-09 13:51:00,46.1,16.3,30.27,NNW,335,3.6,5.8,30,0.00,CLR,,0.00,WeatherDisplay:10.37,2013-02-09 18:51:00,
2013-02-09 13:56:00,46.1,16.3,30.27,NNW,340,2.4,5.0,30,0.00,CLR,,0.00,WeatherDisplay:10.37,2013-02-09 18:56:00,
2013-02-09 14:01:00,46.6,15.2,30.26,North,350,2.8,3.5,28,0.00,CLR,,0.00,WeatherDisplay:10.37,2013-02-09 19:01:00,
2013-02-09 14:06:00,47.0,16.3,30.26,WNW,295,2.8,6.0,29,0.00,CLR,,0.00,WeatherDisplay:10.37,2013-02-09 19:06:00,
2013-02-09 14:11:00,47.1,14.8,30.26,NNW,340,2.5,4.0,27,0.00,CLR,,0.00,WeatherDisplay:10.37,2013-02-09 19:11:00,
2013-02-09 14:16:00,47.5,15.1,30.26,NNW,339,1.9,4.6,27,0.00,CLR,,0.00,WeatherDisplay:10.37,2013-02-09 19:16:00,
2013-02-09 14:22:00,47.8,14.5,30.26,WNW,285,1.8,3.5,26,0.00,CLR,,0.00,WeatherDisplay:10.37,2013-02-09 19:22:00,
2013-02-09 14:27:00,47.9,17.1,30.25,NNW,332,0.7,3.0,29,0.00,CLR,,0.00,WeatherDisplay:10.37,2013-02-09 19:27:00,
2013-02-09 14:32:00,48.1,15.6,30.25,North,10,1.9,4.0,27,0.00,CLR,,0.00,WeatherDisplay:10.37,2013-02-09 19:32:00,
2013-02-09 14:37:00,48.1,15.6,30.25,North,6,0.1,3.5,27,0.00,CLR,,0.00,WeatherDisplay:10.37,2013-02-09 19:37:00,
2013-02-09 14:42:00,48.4,16.7,30.25,NNW,330,1.5,3.5,28,0.00,CLR,,0.00,WeatherDisplay:10.37,2013-02-09 19:42:00,
2013-02-09 14:47:00,49.0,18.1,30.25,West,276,3.0,5.0,29,0.00,CLR,,0.00,WeatherDisplay:10.37,2013-02-09 19:47:00,
2013-02-09 14:52:00,48.9,15.5,30.25,SW,221,2.1,5.8,26,0.00,CLR,,0.00,WeatherDisplay:10.37,2013-02-09 19:52:00,
2013-02-09 14:57:00,49.5,16.9,30.25,NNE,14,2.0,3.0,27,0.00,CLR,,0.00,WeatherDisplay:10.37,2013-02-09 19:57:00,
2013-02-09 15:02:00,49.5,16.9,30.26,West,262,1.7,3.5,27,0.00,CLR,,0.00,WeatherDisplay:10.37,2013-02-09 20:02:00,
2013-02-09 15:07:00,49.5,16.9,30.26,NNW,344,2.2,4.0,27,0.00,CLR,,0.00,WeatherDisplay:10.37,2013-02-09 20:07:00,
2013-02-09 15:12:00,49.5,18.5,30.26,NW,325,2.4,4.6,29,0.00,CLR,,0.00,WeatherDisplay:10.37,2013-02-09 20:12:00,
2013-02-09 15:17:00,49.3,16.7,30.26,SW,236,5.8,9.0,27,0.00,CLR,,0.00,WeatherDisplay:10.37,2013-02-09 20:17:00,
2013-02-09 15:22:00,49.4,18.4,30.26,NW,315,0.8,3.5,29,0.00,CLR,,0.00,WeatherDisplay:10.37,2013-02-09 20:22:00,
2013-02-09 15:27:00,49.4,16.8,30.27,NNW,338,1.8,4.6,27,0.00,CLR,,0.00,WeatherDisplay:10.37,2013-02-09 20:27:00,
2013-02-09 15:32:00,49.2,16.6,30.27,SW,233,1.8,5.0,27,0.00,CLR,,0.00,WeatherDisplay:10.37,2013-02-09 20:32:00,
2013-02-09 15:37:00,49.4,17.6,30.27,WSW,240,1.0,3.5,28,0.00,CLR,,0.00,WeatherDisplay:10.37,2013-02-09 20:37:00,
2013-02-09 15:42:00,49.9,18.0,30.28,SSW,198,0.5,3.5,28,0.00,CLR,,0.00,WeatherDisplay:10.37,2013-02-09 20:42:00,
2013-02-09 15:47:00,50.5,18.6,30.27,West,266,2.4,4.0,28,0.00,CLR,,0.00,WeatherDisplay:10.37,2013-02-09 20:47:00,
2013-02-09 15:52:00,50.3,17.5,30.27,West,259,3.7,8.1,27,0.00,CLR,,0.00,WeatherDisplay:10.37,2013-02-09 20:52:00,
2013-02-09 15:57:00,50.1,16.5,30.27,WSW,239,3.2,9.0,26,0.00,CLR,,0.00,WeatherDisplay:10.37,2013-02-09 20:57:00,
2013-02-09 16:02:00,50.0,17.3,30.27,WSW,242,2.2,3.5,27,0.00,CLR,,0.00,WeatherDisplay:10.37,2013-02-09 21:02:00,
2013-02-09 16:07:00,50.4,17.6,30.27,SW,231,2.4,5.0,27,0.00,CLR,,0.00,WeatherDisplay:10.37,2013-02-09 21:07:00,
2013-02-09 16:12:00,50.3,18.4,30.27,NW,304,1.6,3.5,28,0.00,CLR,,0.00,WeatherDisplay:10.37,2013-02-09 21:12:00,
2013-02-09 16:17:00,50.4,17.6,30.27,NNW,331,0.9,3.5,27,0.00,CLR,,0.00,WeatherDisplay:10.37,2013-02-09 21:17:00,
2013-02-09 16:22:00,50.5,17.7,30.27,NW,305,1.0,2.3,27,0.00,CLR,,0.00,WeatherDisplay:10.37,2013-02-09 21:22:00,
2013-02-09 16:27:00,51.1,19.1,30.27,WSW,242,0.0,2.3,28,0.00,CLR,,0.00,WeatherDisplay:10.37,2013-02-09 21:27:00,
2013-02-09 16:32:00,51.2,16.5,30.27,West,276,1.4,4.0,25,0.00,CLR,,0.00,WeatherDisplay:10.37,2013-02-09 21:32:00,
2013-02-09 16:38:00,51.0,17.3,30.27,WSW,250,1.9,3.5,26,0.00,CLR,,0.00,WeatherDisplay:10.37,2013-02-09 21:38:00,
2013-02-09 16:42:00,50.8,16.2,30.28,NNW,328,0.9,3.5,25,0.00,CLR,,0.00,WeatherDisplay:10.37,2013-02-09 21:42:00,
2013-02-09 16:47:00,50.5,18.6,30.28,WNW,294,0.7,3.5,28,0.00,CLR,,0.00,WeatherDisplay:10.37,2013-02-09 21:47:00,
2013-02-09 16:52:00,50.8,19.6,30.28,WSW,248,1.4,6.0,29,0.00,CLR,,0.00,WeatherDisplay:10.37,2013-02-09 21:52:00,
2013-02-09 16:57:00,50.5,17.7,30.28,SW,228,2.3,3.0,27,0.00,CLR,,0.00,WeatherDisplay:10.37,2013-02-09 21:57:00,
2013-02-09 17:02:00,50.1,18.2,30.28,SW,231,1.0,2.0,28,0.00,CLR,,0.00,WeatherDisplay:10.37,2013-02-09 22:02:00,
2013-02-09 17:07:00,49.8,18.8,30.28,WSW,248,1.0,2.0,29,0.00,CLR,,0.00,WeatherDisplay:10.37,2013-02-09 22:07:00,
2013-02-09 17:12:00,49.5,19.3,30.28,SE,135,0.4,2.3,30,0.00,CLR,,0.00,WeatherDisplay:10.37,2013-02-09 22:12:00,
2013-02-09 17:18:00,49.4,19.2,30.28,SW,219,0.0,1.1,30,0.00,CLR,,0.00,WeatherDisplay:10.37,2013-02-09 22:18:00,
2013-02-09 17:22:00,48.9,18.0,30.28,NW,325,1.0,3.5,29,0.00,CLR,,0.00,WeatherDisplay:10.37,2013-02-09 22:22:00,
2013-02-09 17:27:00,48.2,18.2,30.28,WNW,293,0.0,0.0,30,0.00,CLR,,0.00,WeatherDisplay:10.37,2013-02-09 22:27:00,
2013-02-09 17:32:00,47.4,17.5,30.28,WSW,251,0.0,1.1,30,0.00,CLR,,0.00,WeatherDisplay:10.37,2013-02-09 22:32:00,
2013-02-09 17:37:00,46.8,17.7,30.28,WSW,240,0.0,1.1,31,0.00,CLR,,0.00,WeatherDisplay:10.37,2013-02-09 22:37:00,
2013-02-09 17:43:00,46.3,18.0,30.28,WSW,250,0.0,2.3,32,0.00,CLR,,0.00,WeatherDisplay:10.37,2013-02-09 22:43:00,
2013-02-09 17:48:00,45.8,17.6,30.28,SSW,206,0.5,2.0,32,0.00,CLR,,0.00,WeatherDisplay:10.37,2013-02-09 22:48:00,
2013-02-09 17:54:00,45.3,17.1,30.28,WNW,302,0.1,1.1,32,0.00,CLR,,0.00,WeatherDisplay:10.37,2013-02-09 22:54:00,
2013-02-09 17:59:00,45.0,16.9,30.28,SSW,211,0.0,1.1,32,0.00,CLR,,0.00,WeatherDisplay:10.37,2013-02-09 22:59:00,
2013-02-09 18:04:00,44.5,18.5,30.28,SE,126,0.1,1.0,35,0.00,CLR,,0.00,WeatherDisplay:10.37,2013-02-09 23:04:00,
2013-02-09 18:09:00,43.9,18.0,30.28,SE,125,0.0,1.1,35,0.00,CLR,,0.00,WeatherDisplay:10.37,2013-02-09 23:09:00,
2013-02-09 18:14:00,43.2,20.5,30.28,SE,125,0.0,0.0,40,0.00,CLR,,0.00,WeatherDisplay:10.37,2013-02-09 23:14:00,
2013-02-09 18:19:00,42.3,20.8,30.28,SW,222,0.0,0.0,42,0.00,CLR,,0.00,WeatherDisplay:10.37,2013-02-09 23:19:00,
2013-02-09 18:24:00,42.1,17.6,30.29,SW,216,0.0,0.0,37,0.00,CLR,,0.00,WeatherDisplay:10.37,2013-02-09 23:24:00,
2013-02-09 18:29:00,42.2,17.8,30.29,SW,222,0.0,0.0,37,0.00,CLR,,0.00,WeatherDisplay:10.37,2013-02-09 23:29:00,
2013-02-09 18:34:00,41.8,21.5,30.30,SW,223,0.0,0.0,44,0.00,CLR,,0.00,WeatherDisplay:10.37,2013-02-09 23:34:00,
2013-02-09 18:40:00,40.3,20.1,30.30,SW,229,0.0,0.0,44,0.00,CLR,,0.00,WeatherDisplay:10.37,2013-02-09 23:40:00,
2013-02-09 18:45:00,39.9,18.6,30.30,SW,229,0.0,0.0,42,0.00,CLR,,0.00,WeatherDisplay:10.37,2013-02-09 23:45:00,
2013-02-09 18:50:00,39.2,20.6,30.31,SW,228,0.0,0.0,47,0.00,CLR,,0.00,WeatherDisplay:10.37,2013-02-09 23:50:00,
2013-02-09 18:55:00,38.8,19.2,30.31,SW,228,0.0,0.0,45,0.00,CLR,,0.00,WeatherDisplay:10.37,2013-02-09 23:55:00,
2013-02-09 19:00:00,38.3,19.8,30.31,SW,228,0.0,1.1,47,0.00,CLR,,0.00,WeatherDisplay:10.37,2013-02-10 00:00:00,
2013-02-09 19:05:00,37.9,20.4,30.31,SW,228,0.0,0.0,49,0.00,CLR,,0.00,WeatherDisplay:10.37,2013-02-10 00:05:00,
2013-02-09 19:10:00,37.5,20.1,30.32,SW,233,0.2,1.1,49,0.00,CLR,,0.00,WeatherDisplay:10.37,2013-02-10 00:10:00,
2013-02-09 19:15:00,37.7,19.8,30.31,North,358,0.4,1.1,48,0.00,CLR,,0.00,WeatherDisplay:10.37,2013-02-10 00:15:00,
2013-02-09 19:20:00,38.0,20.0,30.31,North,359,0.0,0.0,48,0.00,CLR,,0.00,WeatherDisplay:10.37,2013-02-10 00:20:00,
2013-02-09 19:25:00,37.9,20.4,30.32,North,358,0.1,1.1,49,0.00,CLR,,0.00,WeatherDisplay:10.37,2013-02-10 00:25:00,
2013-02-09 19:30:00,36.9,22.7,30.32,ESE,121,0.0,1.1,56,0.00,CLR,,0.00,WeatherDisplay:10.37,2013-02-10 00:30:00,
2013-02-09 19:35:00,36.0,21.4,30.32,ESE,120,0.0,1.0,55,0.00,CLR,,0.00,WeatherDisplay:10.37,2013-02-10 00:35:00,
2013-02-09 19:40:00,36.0,21.4,30.32,NNE,26,0.0,1.1,55,0.00,CLR,,0.00,WeatherDisplay:10.37,2013-02-10 00:40:00,
2013-02-09 19:45:00,36.0,22.2,30.32,ENE,67,0.0,0.0,57,0.00,CLR,,0.00,WeatherDisplay:10.37,2013-02-10 00:45:00,
2013-02-09 19:51:00,35.3,23.2,30.32,ESE,120,0.5,1.1,61,0.00,CLR,,0.00,WeatherDisplay:10.37,2013-02-10 00:51:00,
2013-02-09 19:56:00,34.8,21.5,30.32,ESE,122,0.0,0.0,58,0.00,CLR,,0.00,WeatherDisplay:10.37,2013-02-10 00:56:00,
2013-02-09 20:02:00,34.6,20.1,30.32,ESE,121,0.0,0.0,55,0.00,CLR,,0.00,WeatherDisplay:10.37,2013-02-10 01:02:00,
2013-02-09 20:07:00,35.1,20.5,30.32,ESE,113,0.0,0.0,55,0.00,CLR,,0.00,WeatherDisplay:10.37,2013-02-10 01:07:00,
2013-02-09 20:12:00,35.3,19.9,30.32,East,101,0.2,1.1,53,0.00,CLR,,0.00,WeatherDisplay:10.37,2013-02-10 01:12:00,
2013-02-09 20:17:00,35.6,19.7,30.32,East,101,0.0,0.0,52,0.00,CLR,,0.00,WeatherDisplay:10.37,2013-02-10 01:17:00,
2013-02-09 20:22:00,35.3,21.6,30.32,SSE,167,0.0,0.0,57,0.00,CLR,,0.00,WeatherDisplay:10.37,2013-02-10 01:22:00,
2013-02-09 20:27:00,35.0,20.4,30.32,SSE,167,0.0,0.0,55,0.00,CLR,,0.00,WeatherDisplay:10.37,2013-02-10 01:27:00,
2013-02-09 20:32:00,34.8,22.3,30.33,SSE,168,0.0,0.0,60,0.00,CLR,,0.00,WeatherDisplay:10.37,2013-02-10 01:32:00,
2013-02-09 20:37:00,34.3,22.2,30.33,SSE,167,0.0,0.0,61,0.00,CLR,,0.00,WeatherDisplay:10.37,2013-02-10 01:37:00,
2013-02-09 20:42:00,33.5,22.2,30.33,SSE,167,0.0,0.0,63,0.00,CLR,,0.00,WeatherDisplay:10.37,2013-02-10 01:42:00,
2013-02-09 20:47:00,32.9,21.3,30.33,SSE,168,0.0,0.0,62,0.00,CLR,,0.00,WeatherDisplay:10.37,2013-02-10 01:47:00,
2013-02-09 20:52:00,32.6,20.6,30.33,SSE,168,0.0,0.0,61,0.00,CLR,,0.00,WeatherDisplay:10.37,2013-02-10 01:52:00,
2013-02-09 20:58:00,32.5,21.7,30.33,SSE,168,0.0,0.0,64,0.00,CLR,,0.00,WeatherDisplay:10.37,2013-02-10 01:58:00,
2013-02-09 21:03:00,32.2,21.4,30.34,SSE,155,0.0,0.0,64,0.00,CLR,,0.00,WeatherDisplay:10.37,2013-02-10 02:03:00,
2013-02-09 21:08:00,32.0,21.6,30.34,SSE,155,0.0,0.0,65,0.00,CLR,,0.00,WeatherDisplay:10.37,2013-02-10 02:08:00,
2013-02-09 21:13:00,31.2,22.9,30.34,SSE,156,0.0,0.0,71,0.00,CLR,,0.00,WeatherDisplay:10.37,2013-02-10 02:13:00,
2013-02-09 21:18:00,30.7,21.4,30.34,SSE,155,0.0,0.0,68,0.00,CLR,,0.00,WeatherDisplay:10.37,2013-02-10 02:18:00,
2013-02-09 21:23:00,30.9,20.5,30.34,SSE,150,0.0,0.0,65,0.00,CLR,,0.00,WeatherDisplay:10.37,2013-02-10 02:23:00,
2013-02-09 21:28:00,31.2,20.8,30.34,SSE,152,0.0,0.0,65,0.00,CLR,,0.00,WeatherDisplay:10.37,2013-02-10 02:28:00,
2013-02-09 21:33:00,30.8,20.8,30.34,SSE,152,0.0,0.0,66,0.00,CLR,,0.00,WeatherDisplay:10.37,2013-02-10 02:33:00,
2013-02-09 21:38:00,30.6,20.9,30.34,SSE,153,0.0,0.0,67,0.00,CLR,,0.00,WeatherDisplay:10.37,2013-02-10 02:38:00,
2013-02-09 21:43:00,30.4,20.7,30.33,SSE,152,0.0,0.0,67,0.00,CLR,,0.00,WeatherDisplay:10.37,2013-02-10 02:43:00,
2013-02-09 21:48:00,30.2,20.6,30.33,SSE,152,0.0,0.0,67,0.00,CLR,,0.00,WeatherDisplay:10.37,2013-02-10 02:48:00,
2013-02-09 21:53:00,30.1,20.5,30.33,SSE,152,0.0,0.0,67,0.00,CLR,,0.00,WeatherDisplay:10.37,2013-02-10 02:53:00,
2013-02-09 21:58:00,30.6,19.9,30.34,SSE,152,0.0,0.0,64,0.00,CLR,,0.00,WeatherDisplay:10.37,2013-02-10 02:58:00,
2013-02-09 22:03:00,31.2,19.7,30.34,SSE,153,0.0,0.0,62,0.00,CLR,,0.00,WeatherDisplay:10.37,2013-02-10 03:03:00,
2013-02-09 22:08:00,31.4,19.9,30.34,SSE,152,0.0,0.0,62,0.00,CLR,,0.00,WeatherDisplay:10.37,2013-02-10 03:08:00,
2013-02-09 22:14:00,30.7,22.1,30.34,SSE,153,0.0,0.0,70,0.00,CLR,,0.00,WeatherDisplay:10.37,2013-02-10 03:14:00,
2013-02-09 22:19:00,30.1,21.2,30.34,SSE,152,0.0,0.0,69,0.00,CLR,,0.00,WeatherDisplay:10.37,2013-02-10 03:19:00,
2013-02-09 22:24:00,30.1,21.2,30.34,SSE,152,0.0,0.0,69,0.00,CLR,,0.00,WeatherDisplay:10.37,2013-02-10 03:24:00,
2013-02-09 22:29:00,30.1,20.5,30.34,SSE,152,0.0,0.0,67,0.00,CLR,,0.00,WeatherDisplay:10.37,2013-02-10 03:29:00,
2013-02-09 22:34:00,30.1,21.2,30.34,SSE,152,0.0,0.0,69,0.00,CLR,,0.00,WeatherDisplay:10.37,2013-02-10 03:34:00,
2013-02-09 22:39:00,29.7,22.1,30.33,SSE,152,0.0,0.0,73,0.00,CLR,,0.00,WeatherDisplay:10.37,2013-02-10 03:39:00,
2013-02-09 22:44:00,29.2,21.9,30.33,SSE,153,0.0,0.0,74,0.00,CLR,,0.00,WeatherDisplay:10.37,2013-02-10 03:44:00,
2013-02-09 22:49:00,28.8,22.2,30.33,SSE,152,0.0,0.0,76,0.00,CLR,,0.00,WeatherDisplay:10.37,2013-02-10 03:49:00,
2013-02-09 22:54:00,28.4,21.2,30.33,SSE,152,0.0,0.0,74,0.00,CLR,,0.00,WeatherDisplay:10.37,2013-02-10 03:54:00,
2013-02-09 22:59:00,28.1,21.2,30.33,SSE,152,0.0,0.0,75,0.00,CLR,,0.00,WeatherDisplay:10.37,2013-02-10 03:59:00,
2013-02-09 23:04:00,28.7,20.1,30.33,East,82,0.3,1.1,70,0.00,CLR,,0.00,WeatherDisplay:10.37,2013-02-10 04:04:00,
2013-02-09 23:09:00,29.4,21.8,30.33,SSW,195,0.0,0.0,73,0.00,CLR,,0.00,WeatherDisplay:10.37,2013-02-10 04:09:00,
2013-02-09 23:15:00,28.6,21.7,30.33,SSW,195,0.0,0.0,75,0.00,CLR,,0.00,WeatherDisplay:10.37,2013-02-10 04:15:00,
2013-02-09 23:20:00,28.4,21.5,30.33,SSW,195,0.0,0.0,75,0.00,CLR,,0.00,WeatherDisplay:10.37,2013-02-10 04:20:00,
2013-02-09 23:26:00,28.0,21.4,30.34,SSW,195,0.0,0.0,76,0.00,CLR,,0.00,WeatherDisplay:10.37,2013-02-10 04:26:00,
2013-02-09 23:31:00,27.7,21.4,30.34,SSW,195,0.0,0.0,77,0.00,CLR,,0.00,WeatherDisplay:10.37,2013-02-10 04:31:00,
2013-02-09 23:36:00,27.7,20.2,30.34,SSW,195,0.0,0.0,73,0.00,CLR,,0.00,WeatherDisplay:10.37,2013-02-10 04:36:00,
2013-02-09 23:41:00,27.5,20.9,30.34,SSW,195,0.0,0.0,76,0.00,CLR,,0.00,WeatherDisplay:10.37,2013-02-10 04:41:00,
2013-02-09 23:47:00,27.5,20.3,30.34,SSW,195,0.0,0.0,74,0.00,CLR,,0.00,WeatherDisplay:10.37,2013-02-10 04:47:00,
2013-02-09 23:52:00,27.5,20.3,30.35,SSW,195,0.0,0.0,74,0.00,CLR,,0.00,WeatherDisplay:10.37,2013-02-10 04:52:00,
2013-02-09 23:57:00,27.6,20.1,30.35,SSW,195,0.0,0.0,73,0.00,CLR,,0.00,WeatherDisplay:10.37,2013-02-10 04:57:00,